KLM65J EHAM-EGLC

Flight info

Callsign KLM65J
Flight time 0h 42m
Altitude 20000
Route IDRID L980 XAMAN
Aircraft E190/M-SDE3GILORVW/S

Departure

Time 2026-05-05 16:18
Airport Amsterdam Airport Schiphol (EHAM)

Arrival

Time 2026-05-05 17:00
Airport London City Airport (EGLC)
Time Latitude Longitude Altitude Speed Heading
2026-05-05 15:26 52.30390 4.76155 -2 ft 0 kts 58°
2026-05-05 15:56 52.30383 4.76138 -2 ft 4 kts 62°
2026-05-05 15:56 52.30373 4.76098 -2 ft 4 kts 80°
2026-05-05 15:57 52.30374 4.76058 -2 ft 4 kts 126°
2026-05-05 15:57 52.30380 4.76046 -2 ft 2 kts 150°
2026-05-05 16:06 52.30379 4.76048 -2 ft 1 kts 143°
2026-05-05 16:07 52.30364 4.76080 -2 ft 5 kts 125°
2026-05-05 16:07 52.30324 4.76136 -2 ft 10 kts 146°
2026-05-05 16:07 52.30253 4.76205 -2 ft 14 kts 149°
2026-05-05 16:07 52.30169 4.76197 -2 ft 14 kts 232°
2026-05-05 16:08 52.30113 4.76055 -2 ft 15 kts 234°
2026-05-05 16:08 52.30052 4.75886 -2 ft 19 kts 239°
2026-05-05 16:08 52.29975 4.75685 -2 ft 23 kts 238°
2026-05-05 16:08 52.29892 4.75468 -2 ft 17 kts 236°
2026-05-05 16:09 52.29834 4.75274 -2 ft 21 kts 264°
2026-05-05 16:09 52.29913 4.75064 -2 ft 24 kts 311°
2026-05-05 16:09 52.30007 4.74883 -2 ft 26 kts 311°
2026-05-05 16:09 52.30130 4.74666 8 ft 24 kts 308°
2026-05-05 16:10 52.30241 4.74455 9 ft 26 kts 311°
2026-05-05 16:10 52.30364 4.74215 -2 ft 13 kts 310°
2026-05-05 16:10 52.30417 4.74122 -2 ft 13 kts 302°
2026-05-05 16:10 52.30407 4.73963 -2 ft 16 kts 264°
2026-05-05 16:11 52.30407 4.73929 -3 ft 0 kts 275°
2026-05-05 16:15 52.30410 4.73887 -3 ft 7 kts 275°
2026-05-05 16:15 52.30411 4.73853 -3 ft 2 kts 275°
2026-05-05 16:16 52.30474 4.73757 -4 ft 5 kts
2026-05-05 16:17 52.30880 4.73802 -2 ft 112 kts
2026-05-05 16:17 52.31932 4.73903 311 ft 178 kts
2026-05-05 16:18 52.34668 4.74450 2157 ft 232 kts 11°
2026-05-05 16:18 52.36507 4.74935 2623 ft 305 kts
2026-05-05 16:18 52.40688 4.75506 3062 ft 268 kts
2026-05-05 16:19 52.42429 4.75445 3400 ft 233 kts 359°
2026-05-05 16:19 52.43932 4.75294 3714 ft 201 kts 358°
2026-05-05 16:19 52.46828 4.74961 4450 ft 242 kts 356°
2026-05-05 16:20 52.50498 4.74505 5353 ft 274 kts 356°
2026-05-05 16:20 52.54323 4.74035 6260 ft 276 kts 355°
2026-05-05 16:21 52.58043 4.72345 7091 ft 277 kts 318°
2026-05-05 16:22 52.59208 4.62852 8431 ft 300 kts 264°
2026-05-05 16:22 52.58014 4.56422 9314 ft 305 kts 229°
2026-05-05 16:23 52.54382 4.52113 10228 ft 328 kts 212°
2026-05-05 16:23 52.52410 4.50256 10641 ft 325 kts 210°
2026-05-05 16:23 52.48267 4.47206 11477 ft 325 kts 204°
2026-05-05 16:24 52.46210 4.45784 11887 ft 325 kts 204°
2026-05-05 16:24 52.44132 4.44364 12314 ft 324 kts 204°
2026-05-05 16:24 52.40588 4.40013 13177 ft 320 kts 229°
2026-05-05 16:25 52.39166 4.37236 13622 ft 319 kts 233°
2026-05-05 16:25 52.36607 4.31320 14430 ft 316 kts 240°
2026-05-05 16:25 52.35544 4.28168 14837 ft 316 kts 242°
2026-05-05 16:26 52.33465 4.21871 15669 ft 334 kts 241°
2026-05-05 16:26 52.30985 4.15047 16572 ft 356 kts 238°
2026-05-05 16:27 52.29544 4.11746 17008 ft 356 kts 232°
2026-05-05 16:27 52.28041 4.08525 17450 ft 355 kts 232°
2026-05-05 16:27 52.26529 4.05347 17904 ft 353 kts 232°
2026-05-05 16:27 52.25422 4.03029 18234 ft 362 kts 232°
2026-05-05 16:28 52.23853 3.99754 18639 ft 374 kts 232°
2026-05-05 16:28 52.22233 3.96377 19049 ft 380 kts 232°
2026-05-05 16:28 52.20616 3.93003 19447 ft 380 kts 232°
2026-05-05 16:28 52.18978 3.89598 19576 ft 380 kts 231°
2026-05-05 16:29 52.17349 3.86209 19624 ft 379 kts 231°
2026-05-05 16:29 52.15722 3.82830 19647 ft 378 kts 231°
2026-05-05 16:29 52.14097 3.79461 19660 ft 378 kts 231°
2026-05-05 16:29 52.12470 3.76091 19660 ft 381 kts 231°
2026-05-05 16:30 52.10854 3.72749 19652 ft 378 kts 231°
2026-05-05 16:30 52.09223 3.69378 19656 ft 384 kts 231°
2026-05-05 16:30 52.07517 3.65860 19674 ft 405 kts 231°
2026-05-05 16:30 52.05766 3.62252 19669 ft 407 kts 231°
2026-05-05 16:31 52.04020 3.58660 19657 ft 403 kts 231°
2026-05-05 16:31 52.02277 3.55077 19656 ft 403 kts 232°
2026-05-05 16:31 52.00613 3.51392 19663 ft 405 kts 232°
2026-05-05 16:31 51.99451 3.49036 19667 ft 405 kts 230°
2026-05-05 16:32 51.97733 3.45419 19662 ft 404 kts 233°
2026-05-05 16:32 51.95521 3.40559 19665 ft 405 kts 233°
2026-05-05 16:32 51.93850 3.36862 19666 ft 405 kts 233°
2026-05-05 16:32 51.92743 3.34416 19665 ft 405 kts 233°
2026-05-05 16:33 51.91071 3.30727 19663 ft 406 kts 233°
2026-05-05 16:33 51.89405 3.27056 19665 ft 405 kts 233°
2026-05-05 16:33 51.87193 3.22172 19667 ft 406 kts 234°
2026-05-05 16:33 51.86256 3.19487 19651 ft 408 kts 246°
2026-05-05 16:34 51.85406 3.15109 19662 ft 407 kts 255°
2026-05-05 16:34 51.84748 3.10640 19667 ft 408 kts 256°
2026-05-05 16:34 51.84250 3.06194 19657 ft 408 kts 262°
2026-05-05 16:34 51.83929 3.01618 19654 ft 409 kts 262°
2026-05-05 16:35 51.83612 2.97052 19660 ft 408 kts 263°
2026-05-05 16:35 51.83312 2.92480 19655 ft 408 kts 263°
2026-05-05 16:35 51.83009 2.87911 19656 ft 407 kts 262°
2026-05-05 16:35 51.82704 2.83330 19662 ft 408 kts 263°
2026-05-05 16:36 51.82399 2.78768 19660 ft 408 kts 263°
2026-05-05 16:36 51.82095 2.74263 19658 ft 407 kts 262°
2026-05-05 16:36 51.81788 2.69706 19662 ft 407 kts 262°
2026-05-05 16:36 51.81477 2.65156 19660 ft 408 kts 262°
2026-05-05 16:37 51.81165 2.60598 19660 ft 408 kts 262°
2026-05-05 16:37 51.80850 2.56043 19660 ft 407 kts 262°
2026-05-05 16:37 51.80533 2.51476 19664 ft 408 kts 262°
2026-05-05 16:37 51.80216 2.46915 19664 ft 407 kts 262°
2026-05-05 16:38 51.79897 2.42360 19661 ft 407 kts 262°
2026-05-05 16:38 51.79575 2.37812 19662 ft 407 kts 262°
2026-05-05 16:38 51.79256 2.33317 19668 ft 407 kts 262°
2026-05-05 16:38 51.78930 2.28766 19664 ft 406 kts 262°
2026-05-05 16:39 51.78583 2.24234 19663 ft 407 kts 263°
2026-05-05 16:39 51.78322 2.19666 19667 ft 407 kts 263°
2026-05-05 16:39 51.78046 2.15119 19672 ft 406 kts 263°
2026-05-05 16:39 51.77778 2.10562 19668 ft 407 kts 263°
2026-05-05 16:40 51.77509 2.06007 19663 ft 407 kts 263°
2026-05-05 16:40 51.77239 2.01447 19665 ft 407 kts 263°
2026-05-05 16:40 51.76968 1.96952 19675 ft 406 kts 263°
2026-05-05 16:40 51.76694 1.92412 19672 ft 407 kts 263°
2026-05-05 16:41 51.76418 1.87865 19675 ft 407 kts 263°
2026-05-05 16:41 51.76142 1.83317 19673 ft 406 kts 263°
2026-05-05 16:41 51.75860 1.78780 19679 ft 406 kts 263°
2026-05-05 16:41 51.75579 1.74243 19673 ft 407 kts 263°
2026-05-05 16:42 51.75294 1.69690 19672 ft 407 kts 263°
2026-05-05 16:42 51.74904 1.65184 19675 ft 405 kts 256°
2026-05-05 16:42 51.74156 1.60803 19680 ft 404 kts 251°
2026-05-05 16:42 51.73426 1.56462 19679 ft 405 kts 255°
2026-05-05 16:43 51.72769 1.52034 19668 ft 406 kts 255°
2026-05-05 16:43 51.72112 1.47629 19667 ft 405 kts 255°
2026-05-05 16:43 51.71461 1.43195 19553 ft 404 kts 255°
2026-05-05 16:43 51.70808 1.38781 19284 ft 404 kts 255°
2026-05-05 16:44 51.70155 1.34355 19022 ft 406 kts 255°
2026-05-05 16:44 51.69496 1.29927 18755 ft 407 kts 255°
2026-05-05 16:44 51.68832 1.25469 18498 ft 408 kts 255°
2026-05-05 16:44 51.68168 1.21015 18235 ft 409 kts 255°
2026-05-05 16:45 51.67499 1.16566 17945 ft 407 kts 255°
2026-05-05 16:45 51.66838 1.12153 17638 ft 398 kts 255°
2026-05-05 16:45 51.66206 1.07963 17327 ft 382 kts 255°
2026-05-05 16:45 51.65583 1.03850 17026 ft 375 kts 255°
2026-05-05 16:46 51.64965 0.99785 16732 ft 372 kts 255°
2026-05-05 16:46 51.64354 0.95757 16366 ft 370 kts 255°
2026-05-05 16:46 51.63754 0.91817 15966 ft 357 kts 256°
2026-05-05 16:46 51.63162 0.87939 15595 ft 358 kts 256°
2026-05-05 16:47 51.62569 0.84066 15226 ft 356 kts 256°
2026-05-05 16:47 51.61975 0.80191 14859 ft 356 kts 256°
2026-05-05 16:47 51.61380 0.76323 14497 ft 357 kts 256°
2026-05-05 16:47 51.60779 0.72428 14144 ft 358 kts 256°
2026-05-05 16:48 51.60176 0.68522 13797 ft 360 kts 256°
2026-05-05 16:48 51.59580 0.64670 13399 ft 359 kts 256°
2026-05-05 16:48 51.58987 0.60853 13011 ft 353 kts 256°
2026-05-05 16:48 51.58407 0.57133 12600 ft 332 kts 256°
2026-05-05 16:49 51.57858 0.53606 12195 ft 317 kts 256°
2026-05-05 16:49 51.57328 0.50216 11798 ft 308 kts 256°
2026-05-05 16:49 51.56805 0.46882 11414 ft 307 kts 256°
2026-05-05 16:49 51.56283 0.43558 11038 ft 308 kts 256°
2026-05-05 16:50 51.55758 0.40218 10675 ft 308 kts 256°
2026-05-05 16:50 51.55233 0.36882 10313 ft 308 kts 256°
2026-05-05 16:50 51.54711 0.33583 9967 ft 307 kts 256°
2026-05-05 16:50 51.54248 0.30236 9583 ft 308 kts 264°
2026-05-05 16:51 51.54534 0.26855 9183 ft 309 kts 290°
2026-05-05 16:51 51.55709 0.23960 8783 ft 312 kts 314°
2026-05-05 16:51 51.57504 0.22016 8553 ft 313 kts 335°
2026-05-05 16:51 51.59428 0.20375 8322 ft 310 kts 321°
2026-05-05 16:52 51.60730 0.17788 7990 ft 291 kts 294°
2026-05-05 16:52 51.61102 0.14742 7618 ft 278 kts 266°
2026-05-05 16:52 51.61096 0.14620 7597 ft 278 kts 265°
2026-05-05 16:55 51.60683 0.12509 7380 ft 268 kts 238°
2026-05-05 16:55 51.59371 0.10459 6937 ft 264 kts 214°
2026-05-05 16:55 51.57827 0.08862 6456 ft 262 kts 213°
2026-05-05 16:56 51.56347 0.07157 5918 ft 261 kts 223°
2026-05-05 16:56 51.55277 0.04800 5364 ft 262 kts 242°
2026-05-05 16:56 51.54561 0.02163 4842 ft 260 kts 251°
2026-05-05 16:56 51.54141 -0.00595 4289 ft 246 kts 261°
2026-05-05 16:57 51.53845 -0.03246 3743 ft 236 kts 262°
2026-05-05 16:57 51.53531 -0.05670 3207 ft 230 kts 248°
2026-05-05 16:57 51.52557 -0.07662 2635 ft 230 kts 214°
2026-05-05 16:57 51.51060 -0.08461 2082 ft 228 kts 178°
2026-05-05 16:58 51.49602 -0.07708 1805 ft 215 kts 137°
2026-05-05 16:58 51.48857 -0.05884 1888 ft 185 kts 97°
2026-05-05 16:58 51.49077 -0.04095 1891 ft 155 kts 56°
2026-05-05 16:58 51.49754 -0.02710 1726 ft 148 kts 49°
2026-05-05 16:59 51.50263 -0.01261 1412 ft 146 kts 71°
2026-05-05 16:59 51.50396 0.00211 1095 ft 122 kts 71°
2026-05-05 16:59 51.50574 0.01532 671 ft 119 kts 80°
2026-05-05 16:59 51.50598 0.02837 354 ft 111 kts 92°
2026-05-05 17:00 51.50566 0.04057 113 ft 103 kts 91°
2026-05-05 17:00 51.50534 0.05088 31 ft 78 kts 92°
2026-05-05 17:00 51.50515 0.05789 22 ft 41 kts 92°
2026-05-05 17:00 51.50504 0.06137 25 ft 29 kts 92°
2026-05-05 17:01 51.50452 0.06342 28 ft 19 kts 152°
2026-05-05 17:01 51.50448 0.06516 28 ft 20 kts 47°
2026-05-05 17:01 51.50486 0.06524 29 ft 3 kts 307°
2026-05-05 17:01 51.50494 0.06456 29 ft 10 kts 274°
2026-05-05 17:02 51.50500 0.06303 28 ft 18 kts 272°
2026-05-05 17:02 51.50504 0.06066 23 ft 24 kts 274°
2026-05-05 17:02 51.50516 0.05769 22 ft 29 kts 272°
2026-05-05 17:02 51.50526 0.05454 24 ft 20 kts 274°
2026-05-05 17:03 51.50480 0.05301 28 ft 10 kts 225°
2026-05-05 17:03 51.50432 0.05218 27 ft 11 kts 197°
2026-05-05 17:03 51.50413 0.05216 26 ft 0 kts 178°